Wind_Speed
12 13 13 13 13 13 13 14 14 14 14 14 14 14 14 14 14 13 13 12 12 11 9 7 7 8 9 10 12 14 16 19 21 22 24 25 27 28 28 29 29 30 31
12 13 13 14 14 14 13 13 13 14 14 14 14 13 13 13 13 13 13 13 12 11 9 8 7 7 7 8 10 12 14 16 19 21 23 25 26 27 28 29 29 29 30
12 13 13 14 14 14 14 14 14 14 14 14 14 13 13 13 13 13 12 12 12 11 10 9 7 7 7 7 8 10 12 14 16 19 21 23 25 27 28 29 30 29 30
13 13 13 13 14 14 14 14 14 14 14 13 13 13 13 13 13 13 12 12 12 11 10 9 8 7 7 7 8 9 11 12 15 17 19 22 23 25 27 28 29 30 30
14 14 13 13 14 14 14 14 14 14 14 14 13 13 13 13 13 13 13 12 11 11 10 9 8 7 7 7 7 8 10 11 14 16 18 20 21 23 26 28 29 30 30
15 15 15 15 15 15 15 14 14 14 14 13 13 13 13 13 13 13 13 12 11 11 11 10 9 8 7 7 7 8 9 11 13 15 16 18 19 20 23 26 28 29 29
17 17 17 17 16 15 15 15 15 15 14 14 14 14 13 13 13 13 13 12 12 11 11 11 10 9 8 7 8 8 8 10 12 14 16 17 18 19 20 23 25 27 28
18 19 19 18 18 17 17 17 16 16 15 15 15 15 14 14 14 14 13 13 12 12 11 11 10 10 9 8 8 8 8 10 11 13 14 16 17 18 19 21 24 25 26
21 21 21 21 20 20 19 18 18 17 17 17 16 16 15 15 14 14 14 13 13 12 12 11 11 10 10 9 9 8 8 8 10 11 13 14 15 16 17 20 22 24 26
23 23 23 23 23 22 21 21 20 19 19 18 18 18 17 16 16 15 15 14 14 13 12 12 11 11 10 9 9 8 8 9 9 11 12 14 15 16 17 18 20 22 23
25 25 25 25 25 24 24 23 22 22 21 21 20 19 19 18 18 17 16 16 15 14 14 13 12 11 11 11 10 9 9 9 10 10 12 13 14 15 15 17 18 20 22
28 28 28 27 27 26 25 25 25 24 23 23 22 22 21 20 20 19 18 17 17 16 15 15 14 13 12 12 11 11 10 10 10 11 11 12 14 15 15 15 17 18 20
29 29 29 29 29 28 27 27 27 26 26 25 25 24 23 22 22 21 20 19 18 18 17 16 15 15 14 13 13 12 12 12 12 12 12 12 13 14 15 16 16 17 19
30 30 30 31 31 30 30 29 29 29 28 28 27 27 26 25 24 23 22 21 20 20 19 19 18 17 16 16 15 14 14 14 14 13 13 14 14 14 15 16 17 18 19
33 33 33 33 33 34 33 32 32 32 31 30 30 29 28 27 27 26 25 24 23 22 22 21 20 19 18 18 17 17 16 16 16 16 15 16 16 16 17 17 18 19 20
35 35 35 36 36 36 36 35 35 35 34 33 32 32 31 30 29 29 28 27 26 25 24 23 22 22 21 20 20 19 19 18 18 18 18 18 18 18 19 19 20 20 21
38 38 38 38 38 38 38 37 36 36 36 35 34 34 33 33 32 31 31 30 29 28 27 25 25 24 23 22 22 21 21 20 20 20 20 20 20 20 21 21 21 22 22
40 40 40 40 40 39 39 38 37 37 36 36 36 36 35 35 34 34 33 32 31 30 29 28 27 26 25 24 24 23 23 22 22 22 22 21 21 21 22 22 23 23 24
41 41 40 39 38 39 39 38 38 38 37 37 37 37 37 36 35 35 35 34 33 32 32 30 29 29 28 27 26 25 25 24 24 24 23 23 23 23 23 23 24 25 25
41 40 39 38 38 38 39 39 38 37 38 38 37 38 38 37 37 36 36 36 35 35 34 33 32 31 30 29 28 28 27 27 26 26 25 25 25 24 24 25 25 25 26
40 40 40 39 39 38 38 38 38 38 37 37 37 37 37 37 38 38 37 37 37 36 36 35 34 33 32 32 31 30 29 28 28 28 27 27 26 26 26 26 26 27 27
41 40 40 40 39 39 39 38 37 37 37 37 37 37 38 38 37 38 38 38 38 38 38 37 37 36 35 34 33 32 31 30 29 29 29 29 28 28 28 29 29 29 29
42 41 41 40 40 39 38 38 37 37 37 37 37 38 38 38 37 38 38 38 38 39 39 39 38 38 37 36 35 35 34 33 31 31 30 30 30 30 30 30 30 30 31
43 42 41 40 40 40 39 39 39 38 38 38 38 38 38 38 38 38 39 39 39 39 39 40 40 39 38 37 36 35 34 34 33 32 32 32 31 31 31 31 32 32 32
44 43 42 42 41 41 40 39 39 40 39 39 39 39 39 39 39 38 38 38 39 38 38 38 39 39 39 37 37 36 36 35 34 34 33 33 32 32 32 33 33 33 33
43 43 43 43 42 41 41 40 40 40 40 40 40 40 40 39 39 38 38 37 37 37 37 36 37 38 38 37 37 36 36 36 35 35 34 34 34 34 34 33 33 33 33
Wind_Direction
289 294 297 299 302 306 309 315 320 322 327 329 332 334 335 337 338 339 339 338 336 332 327 315 300 282 260 250 245 241 237 234 232 229 229 229 228 226 225 225 226 225 225
290 292 297 299 300 303 306 310 314 318 323 326 329 332 334 336 338 340 339 339 338 335 331 322 307 290 272 256 247 240 238 236 233 231 230 230 230 228 227 228 227 226 226
292 294 297 300 301 302 303 307 311 316 320 324 326 327 330 333 337 338 339 339 338 336 332 326 315 298 281 266 250 241 239 237 236 233 232 230 231 230 228 228 227 227 228
291 295 298 300 301 303 305 308 310 313 317 321 322 323 324 328 333 337 338 338 337 337 335 330 321 305 291 277 260 248 244 238 236 233 232 230 232 232 230 229 228 227 228
290 292 295 297 298 301 304 306 308 310 312 315 318 319 321 324 327 332 335 335 334 335 334 331 322 307 298 291 273 260 247 241 234 231 230 232 232 232 232 231 229 229 228
290 290 290 293 294 297 300 302 304 306 308 310 313 315 317 319 321 324 328 329 329 329 328 326 322 314 299 287 277 265 253 243 236 231 228 231 230 231 231 229 228 228 228
289 289 288 289 290 292 295 298 300 302 303 305 308 310 312 314 316 318 320 322 324 324 325 324 322 317 305 287 283 273 259 248 242 239 234 231 230 230 229 228 228 228 230
287 287 288 287 288 288 290 292 294 296 298 300 301 303 306 308 310 312 313 315 316 318 319 320 320 317 309 299 290 280 266 253 247 244 237 233 233 232 230 230 230 231 232
287 287 287 287 286 287 286 286 288 291 293 294 296 297 299 300 302 304 306 307 309 311 313 316 316 314 310 302 295 287 277 262 250 247 242 238 238 238 235 234 233 232 233
285 286 286 286 285 285 284 283 284 286 288 290 292 293 294 295 295 296 298 299 301 302 303 306 309 310 308 303 292 285 279 271 263 255 250 243 242 242 240 238 237 238 237
284 283 283 284 283 283 283 281 281 282 283 285 287 288 289 289 290 291 292 292 292 292 294 296 299 301 301 299 294 287 282 273 266 263 255 248 247 245 242 242 241 242 241
282 281 281 281 280 280 281 279 277 278 279 280 281 282 284 285 285 286 287 287 287 286 287 288 290 291 292 293 291 287 283 279 271 268 260 255 250 246 245 246 243 240 241
281 280 280 279 278 277 278 277 276 276 276 277 278 278 279 280 280 280 281 282 282 282 282 283 283 284 284 285 285 282 279 278 276 271 264 259 256 253 250 248 249 248 247
279 279 278 278 277 275 274 274 274 274 274 274 275 275 275 275 275 276 276 277 277 277 277 277 278 279 280 279 278 277 276 276 275 273 266 260 258 257 256 254 254 254 254
279 278 277 277 276 275 274 274 273 272 272 272 272 273 272 272 272 272 272 272 273 273 273 273 274 274 274 275 275 274 272 272 272 271 268 262 260 259 259 258 258 258 258
279 278 277 277 275 274 273 273 273 271 271 271 271 270 269 269 268 268 267 268 268 269 270 271 271 271 271 271 272 271 271 270 270 270 269 265 263 261 260 259 260 260 260
281 280 278 277 276 275 273 272 271 270 270 270 270 269 267 266 265 266 265 265 265 265 266 267 269 269 269 269 269 269 268 268 268 268 268 267 265 263 262 262 263 262 262
282 280 278 277 276 275 273 271 270 270 268 267 267 266 266 265 264 263 263 263 262 263 264 264 265 267 268 268 267 267 267 266 266 266 267 266 266 265 264 263 264 265 264
282 280 279 277 275 274 273 271 270 270 268 266 264 263 263 263 262 262 262 261 261 261 261 262 262 264 265 265 266 266 266 266 265 265 265 265 265 265 266 266 266 265 265
281 279 277 275 273 273 273 271 270 269 268 266 263 262 261 261 261 261 261 260 259 259 259 260 260 262 263 263 264 264 265 265 265 265 264 264 265 266 266 267 268 269 268
278 277 275 274 272 273 273 271 269 269 268 265 264 263 261 260 260 260 259 259 259 258 259 259 260 260 261 262 262 263 263 264 264 264 264 264 264 265 266 268 269 270 270
276 276 275 273 272 272 272 270 268 268 267 265 264 263 262 260 260 260 259 258 258 258 258 259 259 259 259 260 261 261 262 262 262 262 262 262 263 264 266 268 268 268 269
276 276 275 272 271 270 269 268 267 267 267 265 264 263 260 260 261 261 260 259 258 258 258 258 258 258 258 259 259 260 261 261 261 261 262 263 264 265 266 268 269 270 271
275 274 272 271 270 269 268 267 266 267 266 265 265 264 262 260 260 260 261 259 258 258 258 257 257 256 256 257 257 258 259 260 261 261 262 263 265 266 267 268 269 271 272
273 272 271 270 269 268 267 266 266 266 266 266 266 265 263 261 259 259 259 259 258 257 257 257 256 255 255 255 256 257 258 259 261 262 263 264 265 266 268 269 270 271 272
273 271 270 269 268 267 267 266 266 266 266 266 266 265 262 260 259 258 257 257 258 257 255 255 254 254 255 255 255 256 257 258 260 262 264 265 266 267 269 270 271 272 273
Height
5828 5827 5825 5824 5822 5820 5818 5816 5814 5811 5808 5805 5803 5800 5797 5794 5791 5789 5786 5783 5781 5778 5776 5775 5773 5772 5772 5772 5773 5774 5775 5777 5779 5782 5784 5787 5790 5794 5797 5800 5804 5808 5811
5825 5824 5823 5821 5819 5818 5816 5814 5811 5809 5806 5804 5801 5799 5796 5793 5790 5787 5785 5782 5780 5777 5775 5773 5772 5771 5770 5770 5770 5771 5772 5773 5775 5777 5780 5783 5786 5789 5792 5795 5799 5802 5806
5822 5821 5820 5818 5817 5815 5813 5811 5809 5807 5804 5802 5800 5797 5795 5792 5789 5787 5784 5781 5779 5776 5774 5773 5771 5770 5769 5768 5768 5768 5769 5770 5772 5774 5776 5778 5781 5784 5787 5790 5794 5797 5801
5819 5818 5816 5815 5814 5812 5810 5808 5806 5804 5802 5800 5798 5795 5793 5791 5788 5786 5783 5780 5778 5776 5774 5772 5770 5768 5767 5767 5766 5766 5766 5767 5768 5770 5772 5774 5776 5779 5782 5785 5789 5792 5796
5815 5814 5813 5812 5810 5809 5807 5805 5803 5801 5800 5798 5796 5794 5791 5789 5787 5785 5782 5779 5777 5775 5773 5771 5769 5767 5766 5765 5764 5763 5763 5764 5764 5766 5767 5770 5772 5774 5777 5780 5783 5786 5790
5811 5810 5809 5808 5807 5805 5804 5802 5800 5799 5797 5795 5793 5791 5789 5787 5785 5783 5781 5778 5776 5774 5771 5769 5767 5765 5764 5763 5762 5761 5761 5761 5762 5763 5764 5766 5768 5770 5772 5775 5778 5781 5785
5806 5806 5805 5804 5803 5801 5800 5799 5797 5796 5794 5792 5791 5789 5787 5785 5783 5781 5779 5777 5774 5772 5770 5768 5766 5764 5762 5761 5760 5759 5758 5758 5759 5759 5761 5762 5764 5765 5768 5770 5773 5776 5779
5801 5801 5800 5799 5798 5797 5796 5795 5793 5792 5790 5789 5787 5786 5784 5782 5780 5778 5776 5774 5772 5770 5768 5766 5764 5762 5761 5759 5758 5757 5756 5756 5756 5757 5757 5759 5760 5762 5764 5766 5768 5771 5773
5796 5795 5794 5793 5793 5792 5791 5790 5789 5787 5786 5785 5784 5782 5780 5779 5777 5775 5774 5772 5770 5768 5766 5764 5762 5761 5759 5757 5756 5754 5754 5754 5754 5754 5755 5755 5756 5758 5760 5762 5764 5765 5768
5790 5789 5788 5787 5786 5786 5785 5784 5783 5782 5781 5780 5779 5778 5776 5775 5773 5772 5770 5768 5767 5765 5764 5762 5761 5759 5757 5756 5754 5753 5752 5751 5751 5751 5752 5752 5753 5754 5756 5757 5759 5761 5763
5782 5782 5781 5780 5780 5779 5778 5778 5777 5776 5776 5775 5774 5773 5771 5770 5769 5768 5766 5765 5763 5762 5761 5759 5758 5756 5755 5753 5752 5751 5750 5749 5749 5749 5749 5749 5750 5751 5752 5753 5754 5756 5758
5774 5773 5773 5772 5772 5771 5771 5770 5770 5769 5769 5768 5767 5767 5766 5765 5764 5763 5761 5760 5759 5758 5757 5756 5755 5754 5752 5751 5750 5749 5748 5747 5747 5746 5746 5746 5746 5747 5748 5748 5749 5751 5753
5765 5765 5764 5763 5763 5763 5762 5762 5762 5761 5761 5761 5760 5760 5759 5758 5758 5757 5756 5755 5754 5753 5752 5751 5750 5750 5749 5747 5746 5745 5745 5744 5744 5743 5743 5743 5743 5743 5744 5745 5745 5746 5748
5756 5755 5754 5754 5753 5753 5752 5752 5752 5752 5752 5752 5752 5752 5751 5751 5751 5750 5749 5748 5748 5747 5746 5746 5745 5744 5744 5743 5742 5741 5741 5740 5740 5740 5739 5739 5739 5739 5740 5740 5741 5742 5743
5745 5745 5744 5743 5743 5742 5742 5742 5742 5742 5742 5742 5742 5742 5742 5743 5743 5742 5741 5741 5741 5740 5740 5739 5739 5739 5738 5738 5737 5737 5736 5736 5735 5735 5735 5735 5735 5735 5735 5736 5736 5737 5738
5734 5733 5732 5731 5731 5730 5730 5730 5730 5730 5731 5731 5731 5732 5732 5733 5733 5732 5733 5733 5733 5733 5732 5732 5732 5732 5732 5731 5731 5731 5730 5730 5730 5730 5730 5730 5730 5730 5730 5731 5731 5732 5732
5721 5720 5719 5718 5717 5717 5717 5717 5717 5718 5718 5719 5719 5719 5720 5721 5722 5722 5722 5723 5723 5723 5724 5724 5724 5724 5724 5724 5724 5724 5724 5724 5724 5724 5724 5724 5724 5724 5724 5724 5725 5725 5725
5707 5706 5705 5704 5703 5703 5702 5703 5703 5704 5705 5706 5706 5707 5708 5709 5710 5711 5711 5712 5713 5713 5714 5715 5716 5716 5716 5716 5716 5716 5717 5716 5716 5717 5717 5717 5717 5717 5717 5718 5718 5718 5718
5693 5692 5690 5689 5689 5689 5689 5689 5689 5689 5690 5691 5693 5694 5695 5696 5697 5698 5699 5700 5702 5703 5704 5705 5706 5706 5707 5707 5708 5708 5708 5708 5709 5709 5709 5709 5709 5710 5710 5710 5710 5710 5711
5679 5678 5677 5676 5676 5676 5676 5676 5676 5676 5676 5677 5679 5680 5681 5683 5684 5686 5687 5688 5689 5691 5692 5693 5695 5696 5697 5698 5698 5699 5699 5699 5700 5700 5700 5701 5701 5701 5701 5702 5702 5702 5702
5666 5664 5663 5663 5663 5663 5662 5662 5662 5662 5663 5664 5665 5666 5667 5669 5670 5672 5674 5675 5676 5678 5680 5681 5683 5685 5686 5687 5688 5688 5689 5690 5690 5691 5691 5692 5692 5692 5693 5693 5693 5693 5693
5651 5651 5650 5649 5649 5649 5649 5649 5648 5649 5650 5650 5651 5652 5653 5654 5656 5658 5659 5661 5663 5665 5667 5668 5670 5672 5674 5675 5676 5678 5678 5679 5680 5681 5681 5682 5682 5683 5683 5683 5683 5683 5683
5637 5637 5636 5636 5636 5636 5636 5636 5636 5636 5637 5637 5638 5639 5640 5641 5642 5644 5645 5647 5649 5651 5653 5655 5657 5659 5661 5663 5664 5666 5667 5668 5669 5670 5671 5671 5672 5672 5673 5673 5673 5673 5673
5622 5622 5621 5622 5622 5622 5622 5622 5622 5623 5623 5624 5625 5625 5626 5628 5629 5630 5632 5633 5635 5637 5638 5641 5643 5645 5647 5649 5651 5653 5655 5656 5658 5659 5659 5660 5661 5662 5662 5662 5662 5662 5662
5607 5606 5607 5607 5607 5607 5608 5608 5609 5609 5609 5610 5611 5611 5612 5613 5615 5616 5618 5619 5621 5623 5625 5627 5629 5631 5634 5636 5638 5641 5643 5644 5646 5647 5648 5649 5650 5650 5651 5651 5651 5651 5651
5591 5591 5591 5592 5592 5592 5593 5594 5594 5595 5595 5596 5596 5597 5598 5599 5600 5602 5604 5606 5607 5609 5611 5613 5616 5618 5621 5623 5626 5628 5630 5632 5634 5635 5636 5637 5638 5639 5639 5639 5639 5639 5639